TimeMST,TemperatureF,Dew PointF,Humidity,Sea Level PressureIn,VisibilityMPH,Wind Direction,Wind SpeedMPH,Gust SpeedMPH,PrecipitationIn,Events,Conditions,WindDirDegrees,DateUTC
12:53 AM,33.1,10.9,40,30.10,10.0,WSW,5.8,-,N/A,,Clear,250,2012-11-16 07:53:00
1:53 AM,34.0,10.0,37,30.07,10.0,WSW,8.1,-,N/A,,Clear,240,2012-11-16 08:53:00
2:53 AM,30.9,9.0,40,30.07,10.0,Calm,Calm,-,N/A,,Clear,0,2012-11-16 09:53:00
3:53 AM,33.1,10.0,38,30.06,10.0,South,5.8,-,N/A,,Clear,180,2012-11-16 10:53:00
4:53 AM,32.0,10.9,42,30.09,10.0,West,5.8,-,N/A,,Clear,270,2012-11-16 11:53:00
5:53 AM,35.1,12.9,40,30.08,10.0,West,3.5,-,N/A,,Clear,260,2012-11-16 12:53:00
6:53 AM,34.0,15.1,46,30.06,10.0,Calm,Calm,-,N/A,,Clear,0,2012-11-16 13:53:00
7:53 AM,42.1,21.0,43,30.05,10.0,Calm,Calm,-,N/A,,Clear,0,2012-11-16 14:53:00
8:53 AM,45.0,18.0,34,30.04,10.0,South,3.5,-,N/A,,Clear,170,2012-11-16 15:53:00
9:53 AM,46.9,18.0,32,30.03,10.0,Calm,Calm,-,N/A,,Unknown,0,2012-11-16 16:53:00
10:53 AM,43.0,26.1,51,30.03,10.0,NNW,4.6,-,N/A,,Unknown,330,2012-11-16 17:53:00
11:53 AM,46.0,24.1,42,30.00,10.0,WSW,6.9,-,N/A,,Unknown,240,2012-11-16 18:53:00
12:53 PM,41.0,24.1,51,30.01,10.0,SSE,4.6,-,N/A,,Unknown,160,2012-11-16 19:53:00
1:53 PM,46.0,24.1,42,29.96,10.0,Calm,Calm,-,N/A,,Unknown,0,2012-11-16 20:53:00
2:53 PM,44.1,25.0,47,29.98,10.0,NW,3.5,-,N/A,,Unknown,320,2012-11-16 21:53:00
3:53 PM,43.0,26.1,51,29.99,10.0,Calm,Calm,-,N/A,,Unknown,0,2012-11-16 22:53:00
4:53 PM,43.0,21.9,43,29.97,10.0,Calm,Calm,-,N/A,,Unknown,0,2012-11-16 23:53:00
5:53 PM,41.0,26.1,55,29.96,10.0,NNE,5.8,-,N/A,,Unknown,20,2012-11-17 00:53:00
6:53 PM,39.9,26.1,58,29.97,10.0,NW,6.9,-,N/A,,Unknown,310,2012-11-17 01:53:00
7:53 PM,42.1,23.0,47,29.93,10.0,WNW,13.8,-,N/A,,Unknown,300,2012-11-17 02:53:00
8:53 PM,41.0,24.1,51,29.93,10.0,NNW,13.8,23.0,N/A,,Unknown,340,2012-11-17 03:53:00
9:53 PM,42.1,21.9,45,29.94,10.0,NW,9.2,-,N/A,,Unknown,320,2012-11-17 04:53:00
10:53 PM,43.0,21.9,43,29.96,10.0,NW,12.7,-,N/A,,Unknown,320,2012-11-17 05:53:00
11:53 PM,42.1,21.9,45,29.97,10.0,WNW,10.4,-,N/A,,Unknown,300,2012-11-17 06:53:00